| time (UTC) | temp F | wind direction | speed MPH | gust MPH | rain 1hr in | rain 24hr in | rain mn in | humidity % | barometer mb |
| 20260902201602 | 90 | 106 | 2.0 | 10.0 | 0.00 | 0.00 | 0.00 | 69 | 1014.7 |
| 20260902200022 | 88 | 98 | 2.0 | 9.0 | 0.00 | 0.00 | 0.00 | 70 | 1014.8 |
| 20260902194558 | 88 | 105 | 3.0 | 9.0 | 0.00 | 0.00 | 0.00 | 69 | 1014.8 |
| 20260902193027 | 88 | 360 | 1.0 | 8.0 | 0.00 | 0.00 | 0.00 | 76 | 1014.8 |
| 20260902191606 | 91 | 51 | 1.0 | 15.0 | 0.00 | 0.00 | 0.00 | 66 | 1015.0 |
| 20260902190028 | 90 | 72 | 2.0 | 7.0 | 0.00 | 0.00 | 0.00 | 67 | 1015.1 |
| 20260902184605 | 90 | 111 | 1.0 | 8.0 | 0.00 | 0.00 | 0.00 | 69 | 1015.4 |
| 20260902183018 | 89 | 105 | 2.0 | 6.0 | 0.00 | 0.00 | 0.00 | 68 | 1015.7 |
| 20260902181601 | 87 | 83 | 1.0 | 4.0 | 0.00 | 0.00 | 0.00 | 73 | 1015.8 |
| 20260902180022 | 87 | 62 | 2.0 | 6.0 | 0.00 | 0.00 | 0.00 | 74 | 1016.0 |
| 20260902174605 | 87 | 38 | 2.0 | 10.0 | 0.00 | 0.00 | 0.00 | 73 | 1016.1 |
| 20260902173035 | 88 | 34 | 2.0 | 9.0 | 0.00 | 0.00 | 0.00 | 72 | 1016.0 |
| 20260902171505 | 88 | 53 | 2.0 | 6.0 | 0.00 | 0.00 | 0.00 | 71 | 1016.1 |
| 20260902170039 | 89 | 40 | 2.0 | 6.0 | 0.00 | 0.00 | 0.00 | 69 | 1016.4 |
| 20260902164510 | 88 | 51 | 0.0 | 7.0 | 0.00 | 0.00 | 0.00 | 73 | 1016.6 |
| 20260902163040 | 86 | 53 | 1.0 | 6.0 | 0.00 | 0.00 | 0.00 | 77 | 1016.8 |
| 20260902161514 | 88 | 105 | 3.0 | 6.0 | 0.00 | 0.00 | 0.00 | 74 | 1017.0 |
| 20260902160049 | 87 | 28 | 2.0 | 4.0 | 0.00 | 0.00 | 0.00 | 76 | 1017.2 |
| 20260902154514 | 86 | 38 | 2.0 | 6.0 | 0.00 | 0.00 | 0.00 | 76 | 1017.4 |
| 20260902153043 | 86 | 47 | 2.0 | 5.0 | 0.00 | 0.00 | 0.00 | 76 | 1017.4 |
| 20260902151510 | 85 | 38 | 1.0 | 6.0 | 0.00 | 0.00 | 0.00 | 78 | 1017.6 |
| 20260902150046 | 85 | 91 | 3.0 | 9.0 | 0.00 | 0.00 | 0.00 | 78 | 1017.5 |
| 20260902144512 | 85 | 67 | 0.0 | 4.0 | 0.00 | 0.00 | 0.00 | 81 | 1017.7 |
| 20260902143039 | 82 | 71 | 1.0 | 6.0 | 0.00 | 0.00 | 0.00 | 88 | 1017.5 |
| 20260902141508 | 82 | 41 | 1.0 | 3.0 | 0.00 | 0.00 | 0.00 | 92 | 1017.5 |
| 20260902140043 | 80 | 34 | 1.0 | 3.0 | 0.00 | 0.00 | 0.00 | 95 | 1017.5 |
| 20260902134608 | 79 | 62 | 0.0 | 2.0 | 0.00 | 0.00 | 0.00 | 96 | 1017.5 |
| 20260902133033 | 78 | 68 | 0.0 | 3.0 | 0.00 | 0.00 | 0.00 | 97 | 1017.4 |
| 20260902131601 | 77 | 66 | 1.0 | 2.0 | 0.00 | 0.00 | 0.00 | 97 | 1017.5 |
| 20260902130025 | 76 | 77 | 1.0 | 3.0 | 0.00 | 0.00 | 0.00 | 97 | 1017.5 |
| 20260902124610 | 76 | 78 | 0.0 | 2.0 | 0.00 | 0.00 | 0.00 | 97 | 1017.5 |
| 20260902123024 | 76 | 80 | 0.0 | 3.0 | 0.00 | 0.00 | 0.00 | 97 | 1017.4 |
| 20260902121503 | 76 | 90 | 0.0 | 2.0 | 0.00 | 0.00 | 0.00 | 97 | 1017.3 |
| 20260902120036 | 75 | 96 | 0.0 | 1.0 | 0.00 | 0.00 | 0.00 | 97 | 1017.2 |
| 20260902114620 | 75 | 98 | 0.0 | 2.0 | 0.00 | 0.00 | 0.00 | 97 | 1017.2 |
| 20260902113042 | 75 | 98 | 0.0 | 2.0 | 0.00 | 0.00 | 0.00 | 97 | 1017.0 |
| 20260902111502 | 75 | 98 | 0.0 | 2.0 | 0.00 | 0.00 | 0.00 | 97 | 1016.8 |
| 20260902110037 | 75 | 98 | 0.0 | 2.0 | 0.00 | 0.00 | 0.00 | 97 | 1016.7 |
| 20260902104551 | 75 | 98 | 0.0 | 2.0 | 0.00 | 0.00 | 0.00 | 97 | 1016.4 |
| 20260902103013 | 75 | 98 | 0.0 | 2.0 | 0.00 | 0.00 | 0.00 | 97 | 1016.5 |
| 20260902101551 | 75 | 102 | 0.0 | 0.0 | 0.00 | 0.00 | 0.00 | 97 | 1016.4 |
| 20260902100016 | 75 | 103 | 0.0 | 0.0 | 0.00 | 0.00 | 0.00 | 97 | 1016.4 |
| 20260902094551 | 75 | 103 | 0.0 | 1.0 | 0.00 | 0.00 | 0.00 | 96 | 1016.1 |
| 20260902093016 | 75 | 121 | 0.0 | 0.0 | 0.00 | 0.00 | 0.00 | 96 | 1016.2 |
| 20260902091556 | 75 | 121 | 0.0 | 0.0 | 0.00 | 0.00 | 0.00 | 96 | 1016.0 |
| 20260902090020 | 75 | 121 | 0.0 | 0.0 | 0.00 | 0.00 | 0.00 | 96 | 1016.0 |
| 20260902084601 | 75 | 121 | 0.0 | 2.0 | 0.00 | 0.00 | 0.00 | 96 | 1016.1 |
| 20260902083028 | 75 | 121 | 0.0 | 1.0 | 0.00 | 0.00 | 0.00 | 96 | 1016.2 |
| 20260902081556 | 75 | 122 | 0.0 | 0.0 | 0.00 | 0.00 | 0.00 | 96 | 1016.1 |
| 20260902080022 | 75 | 122 | 0.0 | 0.0 | 0.00 | 0.00 | 0.00 | 96 | 1016.1 |
| 20260902074611 | 75 | 122 | 0.0 | 0.0 | 0.00 | 0.00 | 0.00 | 96 | 1016.1 |
| 20260902073027 | 75 | 122 | 0.0 | 0.0 | 0.00 | 0.00 | 0.00 | 96 | 1016.1 |
| 20260902071601 | 75 | 122 | 0.0 | 0.0 | 0.00 | 0.00 | 0.00 | 96 | 1016.2 |
| 20260902070020 | 74 | 123 | 0.0 | 0.0 | 0.00 | 0.00 | 0.00 | 96 | 1016.0 |
| 20260902064605 | 74 | 123 | 0.0 | 0.0 | 0.00 | 0.00 | 0.00 | 96 | 1016.0 |
| 20260902063033 | 73 | 123 | 0.0 | 0.0 | 0.00 | 0.00 | 0.00 | 96 | 1016.0 |
| 20260902061612 | 74 | 123 | 0.0 | 0.0 | 0.00 | 0.00 | 0.00 | 96 | 1016.0 |
| 20260902060053 | 73 | 123 | 0.0 | 0.0 | 0.00 | 0.00 | 0.00 | 95 | 1016.0 |
| 20260902054500 | 74 | 123 | 0.0 | 0.0 | 0.00 | 0.00 | 0.00 | 95 | 1016.0 |
| 20260902053058 | 74 | 123 | 0.0 | 0.0 | 0.00 | 0.00 | 0.00 | 95 | 1016.1 |
| 20260902051514 | 74 | 123 | 0.0 | 0.0 | 0.00 | 0.00 | 0.00 | 95 | 1016.1 |
| 20260902050059 | 74 | 123 | 0.0 | 0.0 | 0.00 | 0.00 | 0.00 | 95 | 1016.2 |
| 20260902044519 | 74 | 123 | 0.0 | 0.0 | 0.00 | 0.00 | 0.00 | 95 | 1016.4 |
| 20260902043055 | 74 | 123 | 0.0 | 0.0 | 0.00 | 0.00 | 0.00 | 95 | 1016.5 |
| 20260902041516 | 74 | 123 | 0.0 | 0.0 | 0.00 | 0.00 | 0.00 | 95 | 1016.6 |
| 20260902040051 | 74 | 123 | 0.0 | 0.0 | 0.00 | 0.00 | 0.00 | 95 | 1016.8 |
| 20260902034522 | 75 | 123 | 0.0 | 0.0 | 0.00 | 0.00 | 0.00 | 95 | 1016.7 |
| 20260902033105 | 75 | 123 | 0.0 | 0.0 | 0.00 | 0.00 | 0.00 | 95 | 1016.7 |
| 20260902031518 | 75 | 123 | 0.0 | 0.0 | 0.00 | 0.00 | 0.00 | 94 | 1016.9 |
| 20260902030056 | 76 | 123 | 0.0 | 0.0 | 0.00 | 0.00 | 0.00 | 94 | 1017.0 |
| 20260902024515 | 76 | 123 | 0.0 | 0.0 | 0.00 | 0.00 | 0.00 | 94 | 1017.1 |
| 20260902023051 | 76 | 123 | 0.0 | 0.0 | 0.00 | 0.00 | 0.00 | 94 | 1017.1 |
| 20260902021513 | 77 | 123 | 0.0 | 0.0 | 0.00 | 0.00 | 0.00 | 94 | 1017.0 |
| 20260902020058 | 76 | 123 | 0.0 | 0.0 | 0.00 | 0.00 | 0.00 | 93 | 1017.0 |
| 20260902014516 | 77 | 123 | 0.0 | 0.0 | 0.00 | 0.00 | 0.00 | 93 | 1016.9 |
| 20260902013053 | 77 | 123 | 0.0 | 0.0 | 0.00 | 0.00 | 0.00 | 92 | 1016.7 |
| 20260902011526 | 78 | 123 | 0.0 | 0.0 | 0.00 | 0.00 | 0.00 | 92 | 1016.6 |
| 20260902010105 | 78 | 123 | 0.0 | 0.0 | 0.00 | 0.00 | 0.00 | 90 | 1016.4 |
| 20260902004524 | 79 | 123 | 0.0 | 0.0 | 0.00 | 0.00 | 0.00 | 89 | 1016.2 |
| 20260902003104 | 80 | 123 | 0.0 | 0.0 | 0.00 | 0.00 | 0.00 | 88 | 1016.2 |
| 20260902001548 | 80 | 122 | 0.0 | 0.0 | 0.00 | 0.00 | 0.00 | 88 | 1016.3 |
| 20260902000111 | 80 | 122 | 0.0 | 0.0 | 0.00 | 0.00 | 0.00 | 89 | 1016.2 |
| 20260901234535 | 81 | 122 | 0.0 | 0.0 | 0.00 | 0.00 | 0.00 | 89 | 1016.2 |
| 20260901233109 | 81 | 122 | 0.0 | 2.0 | 0.00 | 0.00 | 0.00 | 88 | 1016.2 |
| 20260901231538 | 81 | 122 | 0.0 | 2.0 | 0.00 | 0.00 | 0.00 | 87 | 1016.1 |
| 20260901230008 | 81 | 122 | 0.0 | 2.0 | 0.00 | 0.00 | 0.00 | 86 | 1015.8 |
| 20260901224538 | 81 | 122 | 0.0 | 0.0 | 0.00 | 0.00 | 0.00 | 86 | 1015.7 |
| 20260901223111 | 81 | 122 | 0.0 | 0.0 | 0.00 | 0.00 | 0.00 | 87 | 1015.6 |
| 20260901221539 | 81 | 122 | 0.0 | 2.0 | 0.00 | 0.00 | 0.00 | 88 | 1015.8 |
| 20260901220004 | 81 | 122 | 0.0 | 0.0 | 0.00 | 0.00 | 0.00 | 87 | 1015.8 |
| 20260901214541 | 81 | 122 | 1.0 | 3.0 | 0.00 | 0.00 | 0.00 | 85 | 1015.8 |
| 20260901213001 | 82 | 114 | 1.0 | 7.0 | 0.00 | 0.00 | 0.00 | 83 | 1015.8 |
| 20260901211541 | 82 | 38 | 1.0 | 4.0 | 0.00 | 0.00 | 0.00 | 83 | 1015.9 |
| 20260901210112 | 83 | 30 | 2.0 | 5.0 | 0.00 | 0.00 | 0.00 | 81 | 1015.8 |
| 20260901204532 | 84 | 44 | 2.0 | 4.0 | 0.00 | 0.00 | 0.00 | 79 | 1015.8 |
| 20260901203106 | 84 | 37 | 1.0 | 4.0 | 0.00 | 0.00 | 0.00 | 78 | 1016.2 |